Погода в Сельментаузене

Россия / Чеченская Республика     42°56′04″N   45°52′04″E
темп.,
°C
ветер,
м/с
пор.,
м/с
влажн.,
%
обл.,
%
осадки,
мм/ч
давл.,
гПа
погр.,
м
28 ноября, вс
вс2800:00+5ю2158100 0.0 101913
03:00+6ю224993 0.0 101820
06:00+6ю224948 0.0 101727
09:00+9ююв1249100 0.0 101630
12:00+12ссв1142100 0.0 1014218
15:00+10св1152100 0.0 101312
18:00+7юз00662 0.0 101410
21:00+7ю117142 0.0 101511
29 ноября, пн
пн2900:00+7ююв2268100 0.0 101423
03:00+7ююв117079 0.0 101419
06:00+7ю22695 0.0 101525
09:00+10ююв016110 0.0 101645
12:00+13ссв2152100 0.0 1014277
15:00+12ссв11570 0.0 101493
18:00+10ю22630 0.0 101420
21:00+12ююв45495 0.0 101166
30 ноября, вт
вт3000:00+12ю453811 0.0 100963
03:00+12ю564199 0.0 100785
06:00+14ю5746100 0.0 100493
09:00+16ююз3541100 0.0 1004109
12:00+12зсз2566100 0.0 1011704
15:00+12ссв226725 0.0 1008702
18:00+10юв228014 0.0 100738
21:00+9ююв11760 0.0 100215
1 декабря, ср
ср100:00+11ю35540 0.0 99568
03:00+11ююз34540 0.0 99464
06:00+6ссз139039 0.0 1001120
09:00+7ю128793 0.4 1004147
12:00+11с2269100 0.0 1004367
15:00+2ююз1296100 7.3 1012243
18:00+2юв1286100 3.3 1015247
21:00+3ю2273100 3.5 1015126
2 декабря, чт
чт200:00+2ююв2272100 0.1 1016135
03:00+1ююв2375100 0.1 1016143
06:00+2ю2476100 0.0 101799
09:00+4в017061 0.0 1019140
12:00+6ссв226020 0.0 1019762
15:00+6ссв22595 0.0 1020522
18:00+3ю22752 0.0 102230
21:00+2ю33700 0.0 102344